Location: Unspecified
(40.7945°N, 111.1337°W)
Time: 05:14:10
(UTC-06:00)

Vanguard 1 - Pass Details

Date: 26 June 2019
Orbit: 653 x 3830 km, 34.3° (Epoch: 16 July)

Event Time Altitude Azimuth Distance (km) Brightness Sun altitude
Rises 05:20:32 0° 262° (W) 7,557 14.0 -6.1°
Reaches altitude 10° 05:26:13 10° 260° (W) 6,185 13.6 -5.2°
Maximum altitude 05:43:31 65° 185° (S) 2,256 11.8 -2.6°
Drops below altitude 10° 05:52:43 10° 105° (ESE) 3,490 13.6 -1.1°
Sets 05:55:01 0° 102° (ESE) 4,184 14.1 -0.8°
